sat.trackr.live / text

‹ back to catalog

STARLINK-30216

NORAD 57451 · 2023-105X

PAYLOAD ACTIVE UNKNOWN

§ Identity

Operator
Country
US
Launch date
2023-07-24
Launch site
AFETR
Launch vehicle
Mass (kg)
RCS (m²)

Purposes: comms

External: N2YO · Heavens-Above · Gunter

§ Orbital elements

Epoch: 2026-05-24T20:14:28.394016Z

Period
94.27 min
Inclination
43.0037°
Eccentricity
0.0000967
Mean motion
15.27567758 rev/d
Perigee alt
482.4 km
Apogee alt
483.7 km
Semi-major
6,861.2 km
B*
1.5854e-4
RAAN
189.3480°
Arg perigee
305.8669°
Mean anomaly
54.2093°
Rev number
15,707

§ Raw data

STARLINK-302161 57451U 23105X   26144.84338419  .00004101  00000+0  15854-3 0  99912 57451  43.0037 189.3480 0000967 305.8669  54.2093 15.27567758157079

JSON: /api/v1/satellites/57451 · /tle

For live sub-satellite position, see the globe view (requires WebGL).

§ Visibility from observer

Set your observer location to see the next 7 days of passes ≥ 10°. The values pass through the URL so the page stays shareable.

No JS? Fill the form by hand. The geolocation button needs JavaScript.